TimeCST,TemperatureF,Dew PointF,Humidity,Sea Level PressureIn,VisibilityMPH,Wind Direction,Wind SpeedMPH,Gust SpeedMPH,PrecipitationIn,Events,Conditions,WindDirDegrees,DateUTC
12:15 AM,10.4,3.2,73,30.17,10.0,NW,4.6,-,N/A,,Overcast,320,2013-02-16 06:15:00
12:35 AM,8.6,3.2,79,30.17,10.0,WNW,3.5,-,N/A,,Overcast,300,2013-02-16 06:35:00
12:55 AM,6.8,1.4,79,30.17,10.0,NW,3.5,-,N/A,,Overcast,310,2013-02-16 06:55:00
1:15 AM,8.6,3.2,79,30.16,10.0,WNW,3.5,-,N/A,,Scattered Clouds,300,2013-02-16 07:15:00
1:35 AM,5.0,3.2,92,30.16,10.0,NW,3.5,-,N/A,,Clear,310,2013-02-16 07:35:00
1:55 AM,5.0,1.4,85,30.16,10.0,Calm,Calm,-,N/A,,Clear,0,2013-02-16 07:55:00
2:15 AM,1.4,-2.2,85,30.15,10.0,Calm,Calm,-,N/A,,Scattered Clouds,0,2013-02-16 08:15:00
2:35 AM,-0.4,-4.0,85,30.15,10.0,Calm,Calm,-,N/A,,Scattered Clouds,0,2013-02-16 08:35:00
2:55 AM,-2.2,-5.8,85,30.15,10.0,Calm,Calm,-,N/A,,Clear,0,2013-02-16 08:55:00
3:15 AM,-4.0,-5.8,92,30.15,10.0,Calm,Calm,-,N/A,,Clear,0,2013-02-16 09:15:00
3:35 AM,-4.0,-7.6,85,30.15,5.0,Calm,Calm,-,N/A,,Clear,0,2013-02-16 09:35:00
3:55 AM,-5.8,-9.4,84,30.14,0.8,Calm,Calm,-,N/A,,Mist,0,2013-02-16 09:55:00
4:15 AM,-5.8,-9.4,84,30.14,0.8,Calm,Calm,-,N/A,,Mist,0,2013-02-16 10:15:00
4:35 AM,-7.6,-13.0,77,30.14,10.0,Calm,Calm,-,N/A,,Scattered Clouds,0,2013-02-16 10:35:00
5:15 AM,-9.4,-14.8,77,30.14,7.0,Calm,Calm,-,N/A,,Mostly Cloudy,0,2013-02-16 11:15:00
5:35 AM,-9.4,-14.8,77,30.14,10.0,Calm,Calm,-,N/A,,Overcast,0,2013-02-16 11:35:00
6:15 AM,-7.6,-11.2,84,30.14,7.0,Calm,Calm,-,N/A,,Overcast,0,2013-02-16 12:15:00
6:35 AM,-5.8,-9.4,84,30.14,10.0,Calm,Calm,-,N/A,,Overcast,0,2013-02-16 12:35:00
6:55 AM,-5.8,-9.4,84,30.14,7.0,Calm,Calm,-,N/A,,Overcast,0,2013-02-16 12:55:00
7:15 AM,-5.8,-9.4,84,30.15,7.0,Calm,Calm,-,N/A,,Overcast,0,2013-02-16 13:15:00
7:35 AM,-5.8,-9.4,84,30.15,7.0,Calm,Calm,-,N/A,,Overcast,0,2013-02-16 13:35:00
7:55 AM,-4.0,-9.4,78,30.15,10.0,Calm,Calm,-,N/A,,Overcast,0,2013-02-16 13:55:00
8:15 AM,-4.0,-5.8,92,30.15,5.0,Calm,Calm,-,N/A,Snow,Light Snow,0,2013-02-16 14:15:00
8:35 AM,-2.2,-5.8,85,30.15,7.0,Calm,Calm,-,N/A,,Scattered Clouds,0,2013-02-16 14:35:00
8:55 AM,-2.2,-5.8,85,30.15,7.0,Calm,Calm,-,N/A,,Clear,0,2013-02-16 14:55:00
9:15 AM,1.4,-2.2,85,30.15,4.0,Calm,Calm,-,N/A,Snow,Light Snow,0,2013-02-16 15:15:00
9:35 AM,3.2,-0.4,85,30.15,10.0,Calm,Calm,-,N/A,,Clear,0,2013-02-16 15:35:00
11:55 AM,12.2,-0.4,57,30.15,10.0,NNW,3.5,-,N/A,,Clear,330,2013-02-16 17:55:00
12:35 PM,14.0,-2.2,49,30.12,10.0,Calm,Calm,-,N/A,,Scattered Clouds,0,2013-02-16 18:35:00
12:55 PM,14.0,-2.2,49,30.12,10.0,Calm,Calm,-,N/A,,Mostly Cloudy,0,2013-02-16 18:55:00
1:15 PM,15.8,-0.4,49,30.12,10.0,SW,3.5,-,N/A,,Scattered Clouds,230,2013-02-16 19:15:00
1:35 PM,15.8,-0.4,49,30.12,10.0,SW,3.5,-,N/A,,Clear,220,2013-02-16 19:35:00
1:55 PM,15.8,-0.4,49,30.12,10.0,WSW,4.6,-,N/A,,Scattered Clouds,240,2013-02-16 19:55:00
2:15 PM,15.8,-2.2,45,30.12,10.0,WSW,4.6,-,N/A,,Scattered Clouds,240,2013-02-16 20:15:00
2:35 PM,15.8,-2.2,45,30.12,10.0,West,3.5,-,N/A,,Clear,270,2013-02-16 20:35:00
2:55 PM,15.8,-2.2,45,30.11,10.0,SW,4.6,-,N/A,,Clear,230,2013-02-16 20:55:00
3:15 PM,15.8,-0.4,49,30.11,10.0,West,4.6,-,N/A,,Clear,280,2013-02-16 21:15:00
3:35 PM,17.6,-4.0,38,30.11,10.0,Calm,Calm,-,N/A,,Clear,0,2013-02-16 21:35:00
3:55 PM,17.6,-4.0,38,30.12,10.0,WSW,4.6,-,N/A,,Clear,240,2013-02-16 21:55:00
4:15 PM,15.8,-2.2,45,30.12,10.0,SW,4.6,-,N/A,,Clear,230,2013-02-16 22:15:00
4:35 PM,15.8,-4.0,41,30.12,10.0,WSW,3.5,-,N/A,,Clear,240,2013-02-16 22:35:00
4:55 PM,14.0,-4.0,45,30.12,10.0,WNW,5.8,-,N/A,,Clear,290,2013-02-16 22:55:00
5:15 PM,14.0,-4.0,45,30.13,10.0,West,4.6,-,N/A,,Clear,280,2013-02-16 23:15:00
5:35 PM,10.4,-4.0,52,30.12,10.0,WNW,3.5,-,N/A,,Clear,290,2013-02-16 23:35:00
6:15 PM,6.8,-4.0,61,30.13,10.0,Calm,Calm,-,N/A,,Clear,0,2013-02-17 00:15:00
6:35 PM,5.0,-4.0,66,30.13,10.0,SSW,3.5,-,N/A,,Clear,200,2013-02-17 00:35:00
6:55 PM,5.0,-4.0,66,30.13,10.0,SSW,3.5,-,N/A,,Clear,210,2013-02-17 00:55:00
7:15 PM,3.2,-5.8,66,30.13,10.0,Calm,Calm,-,N/A,,Clear,0,2013-02-17 01:15:00
7:35 PM,5.0,-4.0,66,30.14,10.0,Calm,Calm,-,N/A,,Clear,0,2013-02-17 01:35:00
7:55 PM,1.4,-5.8,72,30.13,10.0,Calm,Calm,-,N/A,,Clear,0,2013-02-17 01:55:00
8:15 PM,1.4,-4.0,78,30.13,10.0,Calm,Calm,-,N/A,,Clear,0,2013-02-17 02:15:00
8:35 PM,-0.4,-5.8,78,30.13,10.0,Calm,Calm,-,N/A,,Clear,0,2013-02-17 02:35:00
9:15 PM,-4.0,-5.8,92,30.14,10.0,Calm,Calm,-,N/A,,Clear,0,2013-02-17 03:15:00
9:35 PM,-5.8,-9.4,84,30.14,10.0,Calm,Calm,-,N/A,,Clear,0,2013-02-17 03:35:00
9:55 PM,-5.8,-9.4,84,30.13,10.0,Calm,Calm,-,N/A,,Clear,0,2013-02-17 03:55:00
10:15 PM,-5.8,-9.4,84,30.13,10.0,Calm,Calm,-,N/A,,Clear,0,2013-02-17 04:15:00
10:35 PM,-9.4,-13.0,84,30.13,10.0,Calm,Calm,-,N/A,,Clear,0,2013-02-17 04:35:00
10:55 PM,-9.4,-14.8,77,30.13,10.0,ENE,3.5,-,N/A,,Clear,60,2013-02-17 04:55:00
11:15 PM,-7.6,-13.0,77,30.13,10.0,Calm,Calm,-,N/A,,Clear,0,2013-02-17 05:15:00
11:35 PM,-9.4,-14.8,77,30.12,10.0,Calm,Calm,-,N/A,,Clear,0,2013-02-17 05:35:00
11:55 PM,-9.4,-14.8,77,30.12,10.0,Calm,Calm,-,N/A,,Clear,0,2013-02-17 05:55:00